Regional Weather Roundup
Issued by NWS

Home | Current Version | Previous Version | Text Only | Print | Product List | Glossary Off
Versions: 1 2 3 4 5 6 7 8 9 10 11 12 13 14 15 16 17 18 19 20 21 22 23 24 25 26 27

000
ASUS45 KBOU 290807
RWRCO

WEATHER ROUNDUP FOR COLORADO
NATIONAL WEATHER SERVICE DENVER/BOULDER CO
200 AM MDT WED MAR 29 2017

NOTE: "FAIR" INDICATES FEW OR NO CLOUDS BELOW 12000 FEET WITH NO
SIGNIFICANT WEATHER AND/OR OBSTRUCTIONS TO VISIBILITY.

COZ001>005-013-030-031-290900-
...NORTHWEST COLORADO...

CITY           SKY/WX    TMP DP  RH WIND       PRES   REMARKS
CRAIG          FAIR      34  27  75 S5        30.11S WCI  30
HAYDEN         FAIR      30  25  80 W7        30.09S WCI  23
MEEKER         FAIR      33  29  85 S5        30.09F WCI  29
MOUNT WERNER   NOT AVBL
STEAMBOAT SPGS MOCLDY    32  30  92 CALM      30.08S
WALDEN         NOT AVBL
$$

COZ006>008-011-290900-
...WEST CENTRAL VALLEYS...

CITY           SKY/WX    TMP DP  RH WIND       PRES   REMARKS
GRAND JUNCTION FAIR      40  32  73 W6        30.03R
MONTROSE       FAIR      41  31  67 N13       30.01R
EAGLE          FAIR      37  30  75 SE3       30.07R
RIFLE          FAIR      40  31  70 VRB6      30.04R
DELTA          FAIR      42  35  74 CALM      29.97R
NUCLA          FAIR      41  30  65 W5        30.00R
$$

COZ017>023-064>068-290900-
...SOUTHWEST COLORADO...

CITY           SKY/WX    TMP DP  RH WIND       PRES   REMARKS
DURANGO        FAIR      36  33  89 CALM      29.86R
CORTEZ         FAIR      44  31  60 N15G25    29.90S
PAGOSA SPRINGS FAIR      37  33  87 CALM      29.87R
TELLURIDE      NOT AVBL
WOLF CREEK PAS CLOUDY    21  21 100 MISG      29.99R
$$

COZ009-010-012-014-032>034-037-058>063-290900-
...CENTRAL COLORADO...

CITY           SKY/WX    TMP DP  RH WIND       PRES   REMARKS
ASPEN          MOCLDY    34  29  82 CALM      30.01S
BUENA VISTA    CLOUDY    37  27  65 N12       29.98F
COPPER MTN     CLOUDY    25  19  80 MISG      30.06S
BERTHOUD PASS  SNOW      16   5  62 E6        30.08S VSB 1/2 WCI   7
COTTONWOOD PAS CLOUDY    32  28  86 CALM      30.02S
GUNNISON       FAIR      34  32  92 CALM      29.96F
KREMMLING      MOCLDY    39  32  75 NW9       30.07S
LEADVILLE      FAIR      25  21  85 N9        30.00F WCI  15
MONARCH PASS   CLOUDY    23  21  93 E48       30.00F WCI   2
SALIDA         CLOUDY    37  35  94 SE3       30.04F
SUNLIGHT       CLOUDY   N/A N/A N/A N7        30.12R
WILKERSON PASS LGT SNOW N/A N/A N/A NE14G28   30.04F
$$

COZ069>075-290900-
...SAN LUIS VALLEY/SANGRE DE CRISTO MOUNTAINS...

CITY           SKY/WX    TMP DP  RH WIND       PRES   REMARKS
ALAMOSA        CLOUDY    37  34  89 N5        29.90R
LA VETA PASS   NOT AVBL
SAGUACHE       CLOUDY    39  27  60 N10       29.93R
$$

COZ035-036-038>040-290900-
...NORTHERN COLORADO FRONT RANGE...

CITY           SKY/WX    TMP DP  RH WIND       PRES   REMARKS
DENVER INTL AP LGT RAIN  35  34  96 NE10      30.07S VSB 1/4 WCI  27
DMNS CITY PARK   N/A     36  36  99 N8        30.08R
AURORA         NOT AVBL
FRONT RANGE AP LGT RAIN  36  36 100 N10       30.08S VSB 1
ERIE MUNI ARPT CLOUDY    38  37  94 NE3       30.09S
BOULDER MUN AP CLOUDY    37  36  93 N3        30.09S
CENTENNIAL     LGT SNOW  33  32  96 N8        30.06S VSB 1   WCI  26
BROOMFIELD     CLOUDY    36  36 100 N8        30.08S
FORT COLLINS   LGT RAIN  39  35  86 NE10      30.09S
LONGMONT       CLOUDY    41  37  86 N3        30.11S
$$

COZ041-046-047-076>085-087-088-290900-
...PIKES PEAK/PALMER DIVIDE AND SOUTHERN FOOTHILLS...

CITY           SKY/WX    TMP DP  RH WIND       PRES   REMARKS
COLO. SPRINGS  FLURRIES  35  31  85 N16       30.02R WCI  25
A. F. ACADEMY  NOT AVBL
SCHRIEVER AFB  LGT RAIN  33  32  94 N15G25    30.02  WCI  23
ELLICOTT       SNOW     N/A N/A N/A NE14      29.99R
FALCON         LGT SNOW  32  31  96 N15G26    30.02R WCI  22
FORT CARSON    CLOUDY    38  31  76 N20G30    30.02R
LIMON          FLURRIES  33  33 100 N9        30.03R WCI  25
MONUMENT HILL  LGT SNOW  30  28  93 N10       30.05R WCI  21
TRINIDAD       LGT RAIN  36  34  92 NE17G23   29.94R
$$

COZ042>045-048>051-090-091-290900-
...NORTHEAST COLORADO...

CITY           SKY/WX    TMP DP  RH WIND       PRES   REMARKS
GREELEY ARPT   CLOUDY    39  36  89 NE9       30.11S
AKRON          LGT RAIN  37  35  92 NE14      30.04R FOG
BURLINGTON     CLOUDY    38  37  97 NE14G25   29.99S
WRAY           DRIZZLE  N/A N/A N/A NE12      30.05S
STERLING       CLOUDY    37  37 100 NE8       30.06F
HOLYOKE        DRIZZLE   41  37  87 NE9       30.06F
FORT MORGAN    CLOUDY    37  36  94 N10       30.08S FOG
$$

COZ086-089-092>099-290900-
...SOUTHEAST COLORADO...

CITY           SKY/WX    TMP DP  RH WIND       PRES   REMARKS
PUEBLO         LGT RAIN  40  37  89 E17       29.99R FOG
LA JUNTA       LGT RAIN  41  38  89 NE15      29.98R
LAMAR          CLOUDY    40  38  93 NE12      29.95R
SPRINGFIELD      N/A     37  37 100 N23       29.89R
$$




USA.gov is the U.S. government's official web portal to all federal, state and local government web resources and services.